COSMOS 2432 (719)

Last updated on Tue Oct 28 2025 00:03:24 GMT+0000 (Coordinated Universal Time)

1 32276U 07052B 25300.27465730 -.00000023 00000+0 00000+0 0 9992 2 32276 65.7227 323.8908 0010473 307.0611 82.7209 2.13103247140126
UTC large
Height (km)
Speed (km/s)
/
Latitude / Longitude
Inclination (degrees)
Orbital Period (minutes)
Azimuth
Elevation
Range (km)
Doppler Factor

Next 0 passes for location: London (51.5072 / 0.1276)

Sorry there are no passes over London.